Location: Unspecified
(0.0000°N, 0.0000°E)
Time: 06:10:42
(UTC+00:00)

Fuji - Pass Details

Date: 02 December 2022
Orbit: 1479 x 1496 km, 50.0° (Epoch: 28 January)

Event Time Altitude Azimuth Distance (km) Brightness Sun altitude
Rises 19:05:07 0° 307° (NW) 4,587 ? -17.5°
Reaches altitude 10° 19:08:19 10° 301° (WNW) 3,611 ? -18.2°
Maximum altitude 19:16:41 42° 233° (SW) 1,996 ? -20.1°
Drops below altitude 10° 19:25:09 10° 164° (SSE) 3,631 ? -22.1°
Sets 19:28:24 0° 157° (SSE) 4,615 ? -22.8°
